map of SVX home
Great Circle Mapper logo
SVX - Airport
Location
City:  Ekaterinburg, Sverdlovsk, Russian Federation (Russia)
Near (Alt.):Yekaterinburg
Name:Koltsovo
ICAO / IATA:USSS / SVX

Details
Type:Airport (Aerodrome, Airfield)
Use:Public/Civil
Latitude:5644'35"N (56.743108)
Longitude:6048'10"E (60.802728)
Datum:WGS 1984
Elevation:764 ft (233 m)
Runways:2
Longest:9925 × 174 ft (3025 × 53 m), paved

Time
Time Zone:UTC+5 (DST+6)

Weather
METAR:USSS 231900Z 24009MPS 9999 SCT050CB OVC067 10/M01 Q1004 7612//55 TEMPO 22015MPS RMK QFE733
TAF:USSS 231700Z 2318/2418 24008MPS 2000 SHRA BKN007 SCT030CB 530003
TEMPO 2318/2409 34006G15MPS 0500 +SHSNRA 650070

Related Locations
Nearby:
Farthest:AAXX: 10682 mi / 17191 km
Rothera Point, Adelaide Island, AQ

Find:

   beyond  
but within

Other Information
Maps:
NOTAMs:
Links:
Sources:

  
flag of Russian Federation (Russia)
flag of Ekaterinburg
  

Sectional Chart

Flight Planning
at skyvector.com

Satellite Image

Google Maps Satellite View

 

Copyright © 2004-2014 Karl L. Swartz. All rights reserved.
The Great Circle Mapper name and logo are trademarks of the Great Circle Mapper.
All other trademarks mentioned herein belong to their respective owners.
Please see credits for attibutions and further copyright information.

  Follow gcmap on Facebook Follow gcmap on Twitter

hCard Microformat

Geo Microformat